Terminal Aerodrome Forecast
Issued by NWS

Home | Current Version | Previous Version | Text Only | Print | Product List | Glossary On
Versions: 1 2 3 4 5 6 7 8 9 10 11 12 13 14
000
FTUS42 TJSJ 301120
TAFISX
TAF
TISX 301120Z 3012/3112 05007KT P6SM VCSH SCT020 BKN040 OVC100
     FM301400 12010KT P6SM VCTS SCT022CB BKN040
     FM302300 09006KT P6SM VCSH SCT025 BKN070=

USA.gov is the U.S. government's official web portal to all federal, state and local government web resources and services.